カタログに戻る

LEMUR 2 EMERSONROSE

運用中科学SSO
NORAD 63261·PAYLOAD·🇺🇸 United States

打ち上げ Mar 15, 2025 から Vandenberg Space Force Base

Loading…

次のパス (今後24時間)

TLE

最新Source: Space-Track

元期: Sep 14, 2026, 12:28 UTC

1 63261U 25052BD  26257.51962445  .00003777  00000-0  31128-3 0  9992
2 63261  97.6763 149.6138 0005305  98.9717 261.2107 14.99637091 82125

AllMySatでLEMUR 2 EMERSONROSEをリアルタイム追跡

Download on the App Store